Lid_Strength_Index
6 5 5 5 6 6 6 6 6 6 6 6 6 6 6 6 6 6 6 5 5 6 6 5 5 4 7 11 11 8 1 3 1 3 4 5 7 10 12 11 10 10 8 7 6 7 7
5 5 5 5 5 6 6 6 6 6 6 6 6 6 6 6 6 6 6 6 6 6 6 5 5 5 8 13 8 7 7 6 6 6 7 6 7 8 10 10 10 8 8 7 7 7 7
5 4 4 4 5 5 5 6 6 6 6 6 6 6 6 6 6 6 6 5 5 5 6 5 5 6 9 11 7 7 6 7 7 8 9 8 8 10 9 9 6 7 10 9 8 9 9
4 4 4 4 4 5 5 5 6 6 6 6 6 6 6 6 6 6 6 6 5 5 5 5 4 6 10 5 6 5 6 7 6 7 8 7 7 10 10 7 8 9 10 13 9 8 8
5 5 5 4 5 5 5 5 5 6 5 5 6 6 6 6 6 5 5 5 5 5 4 4 6 7 10 3 5 4 5 7 6 6 7 5 8 11 10 11 12 11 14 13 12 8 9
5 5 5 5 5 5 5 5 5 5 5 6 5 6 5 5 5 5 5 5 5 4 4 4 5 8 6 7 6 6 6 6 6 8 7 9 11 13 13 12 16 14 14 14 14 10 9
5 5 5 5 5 5 5 5 5 5 5 5 5 5 5 5 5 5 6 9 9 10 9 9 8 7 6 5 5 7 6 7 6 9 12 10 13 15 13 12 11 12 12 13 12 9 10
5 5 5 5 5 5 5 5 5 5 5 5 5 5 5 5 5 5 7 9 7 8 12 8 8 8 6 7 9 7 6 10 8 11 10 11 13 11 9 10 11 12 13 13 11 9 9
5 5 5 5 4 4 4 4 5 5 4 4 4 4 4 4 4 6 9 7 5 6 13 10 9 9 8 7 9 9 7 9 9 10 10 12 11 8 9 11 12 12 13 13 12 10 10
5 5 5 4 3 3 3 3 3 3 2 2 2 2 2 2 6 7 8 5 5 5 14 12 9 7 7 6 9 6 7 8 9 10 10 11 9 10 10 12 11 14 10 10 11 12 15
4 3 3 3 2 2 2 2 2 2 2 2 2 2 2 3 6 8 6 4 4 6 20 9 8 4 6 8 8 8 7 8 11 10 10 12 11 12 12 11 11 12 9 11 11 13 14
3 2 2 3 3 2 2 2 2 2 2 2 2 2 2 5 7 6 5 5 5 13 19 10 7 8 8 8 8 8 9 8 8 10 10 10 8 9 10 9 9 9 11 11 11 13 19
2 2 2 2 2 2 2 2 2 2 2 2 2 2 3 4 9 6 5 7 14 18 10 10 9 8 8 9 9 10 11 12 12 14 15 12 11 9 8 11 9 10 14 19 19 20 20
2 2 2 3 2 2 2 2 2 2 2 2 2 2 3 3 5 6 6 10 17 13 11 8 9 9 10 9 9 10 12 13 12 12 14 16 16 11 9 10 13 12 14 19 22 22 19
3 2 2 2 3 3 2 2 2 2 2 2 1 6 6 5 4 5 7 15 15 12 9 11 10 11 12 9 10 10 12 13 12 11 14 15 14 9 9 8 10 12 16 11 17 16 19
2 2 2 3 2 2 2 2 2 2 1 1 7 8 7 3 3 4 9 14 12 8 8 10 14 10 13 11 11 11 11 9 10 10 10 12 15 10 9 8 8 11 10 16 16 22 22
2 3 2 3 3 2 2 2 2 1 1 1 7 10 6 4 3 6 13 12 9 7 7 10 12 12 11 12 11 11 12 10 9 9 9 11 12 12 10 12 13 13 15 14 14 16 21
3 3 3 3 2 2 2 2 2 1 2 4 9 13 5 1 10 8 11 9 7 8 6 9 9 10 11 11 12 11 11 10 8 8 11 10 12 16 13 9 8 10 13 13 18 18 16
3 3 2 2 2 2 2 1 1 2 2 6 8 8 5 5 12 12 9 9 7 8 8 9 9 9 9 11 13 10 10 7 7 9 11 10 14 18 15 12 10 12 11 12 13 14 18
3 2 2 2 2 2 2 1 2 1 1 4 8 14 10 8 9 11 10 10 11 7 8 7 8 8 10 11 10 12 10 8 6 7 6 8 12 15 18 15 13 15 12 12 13 17 17
2 2 2 2 2 2 1 2 1 1 1 4 7 12 10 15 9 9 9 10 11 11 8 7 9 9 10 12 11 11 9 9 8 7 8 10 14 14 13 12 11 12 13 13 14 13 17
2 2 2 2 2 2 2 1 1 1 1 5 9 12 9 10 8 10 9 11 12 10 10 10 10 10 9 11 10 12 10 10 11 9 10 9 14 14 14 12 12 13 12 12 13 13 13
2 2 2 2 2 2 1 1 1 1 2 6 6 7 9 9 10 12 10 9 10 9 8 8 8 10 11 9 8 8 7 7 8 10 11 11 13 15 17 13 13 16 13 12 12 11 12
2 2 2 2 2 1 1 1 1 1 2 4 7 8 10 12 10 10 9 8 9 8 10 8 7 9 7 5 5 6 7 7 8 8 8 12 13 13 16 15 20 12 9 9 10 10 10
2 2 2 2 1 1 1 1 1 1 1 4 5 5 7 11 9 9 8 8 7 7 8 8 7 6 4 7 10 12 12 11 10 9 9 9 12 15 17 17 14 12 10 11 12 13 9
2 2 2 1 1 1 1 1 1 1 1 2 3 4 4 9 10 7 9 8 10 10 9 8 5 5 6 9 12 15 16 13 14 12 9 9 10 14 15 18 20 13 8 7 8 16 9
2 2 2 2 1 1 2 1 1 0 0 2 3 3 4 8 6 6 9 8 6 8 10 8 7 8 7 11 14 15 15 11 15 15 15 14 13 15 16 17 14 9 7 6 16 15 8
2 2 2 2 2 2 1 1 1 0 -0 2 3 3 4 6 6 5 6 8 9 8 11 8 9 8 9 14 13 13 15 12 13 12 13 14 15 16 15 17 18 8 8 12 10 7 7
2 2 2 2 2 1 1 1 1 0 -0 1 4 3 2 4 7 3 4 4 5 6 8 7 9 8 8 11 12 12 14 14 12 16 10 15 12 14 13 13 9 7 8 7 7 8 9